Weather reports worldwide

Advertisment
Passo Dei Giovi, Italy (16119): temperature & dewpoint: 02.07.2020 01:00:00 - 08.07.2020 01:00:00 (CEST)Passo Dei Giovi, Italy (16119): wind speed: 02.07.2020 01:00:00 - 08.07.2020 01:00:00 (CEST)Passo Dei Giovi, Italy (16119): wind direction: 02.07.2020 01:00:00 - 08.07.2020 01:00:00 (CEST)Passo Dei Giovi, Italy (16119): reduced air pressure: 02.07.2020 01:00:00 - 08.07.2020 01:00:00 (CEST)Passo Dei Giovi, Italy (16119): visibility: 02.07.2020 01:00:00 - 08.07.2020 01:00:00 (CEST)
Date & Time tt [°C] td [°C] ff [km/h] ff [kn] dd ppp [hPa] vv [km]
08.07.2020 01:00:00 - - - - - - -
08.07.2020 00:00:00 - - - - - - -
07.07.2020 23:00:00 - - - - - - -
07.07.2020 22:00:00 - - - - - - -
07.07.2020 21:00:00 - - - - - - -
07.07.2020 20:00:00 23,6 8,5 9 5 N 1013,5 15
07.07.2020 19:00:00 - - - - - - -
07.07.2020 18:00:00 - - - - - - -
07.07.2020 17:00:00 24,4 8,4 13 7 N 1013,4 15
07.07.2020 16:00:00 24,0 8,0 - - - - 10
07.07.2020 15:00:00 24,0 11,0 - - - - 10
07.07.2020 14:00:00 24,0 14,1 9 5 N 1013,1 15
07.07.2020 13:00:00 - - - - - - -
07.07.2020 12:00:00 - - - - - - -
07.07.2020 11:00:00 21,4 12,8 18 10 N 1012,7 15
07.07.2020 10:00:00 21,0 8,0 - - - - 10
07.07.2020 09:00:00 - - - - - - -
07.07.2020 08:00:00 18,6 3,6 26 14 N 1010,9 15
07.07.2020 07:00:00 - - - - - - -
07.07.2020 06:00:00 - - - - - - -
07.07.2020 05:00:00 - - - - - - -
07.07.2020 04:00:00 - - - - - - -
07.07.2020 03:00:00 - - - - - - -
07.07.2020 02:00:00 - - - - - - -
07.07.2020 01:00:00 - - - - - - -
07.07.2020 00:00:00 - - - - - - -
06.07.2020 23:00:00 - - - - - - -
06.07.2020 22:00:00 - - - - - - -
06.07.2020 21:00:00 - - - - - - -
06.07.2020 20:00:00 24,6 15,2 9 5 S 1007,7 15
06.07.2020 19:00:00 - - - - - - -
06.07.2020 18:00:00 - - - - - - -
06.07.2020 17:00:00 26,0 17,6 13 7 S 1008,1 15
06.07.2020 16:00:00 - - - - - - -
06.07.2020 15:00:00 27,0 18,0 - - - - 10
06.07.2020 14:00:00 26,4 19,5 16 9 S 1009,4 15
06.07.2020 13:00:00 - - - - - - -
06.07.2020 12:00:00 - - - - - - -
06.07.2020 11:00:00 24,0 16,8 5 3 N 1011,1 15
06.07.2020 10:00:00 22,0 17,0 - - - - 10
06.07.2020 09:00:00 19,0 16,0 - - - - 10
06.07.2020 08:00:00 16,8 15,2 15 8 N 1012,8 12
06.07.2020 07:00:00 - - - - - - -
06.07.2020 06:00:00 - - - - - - -
06.07.2020 05:00:00 - - - - - - -
06.07.2020 04:00:00 - - - - - - -
06.07.2020 03:00:00 - - - - - - -
06.07.2020 02:00:00 - - - - - - -
06.07.2020 01:00:00 - - - - - - -
06.07.2020 00:00:00 - - - - - - -
05.07.2020 23:00:00 - - - - - - -
05.07.2020 22:00:00 - - - - - - -
05.07.2020 21:00:00 - - - - - - -
05.07.2020 20:00:00 - - - - - - -
05.07.2020 19:00:00 - - - - - - -
05.07.2020 18:00:00 - - - - - - -
05.07.2020 17:00:00 - - - - - - -
05.07.2020 16:00:00 - - - - - - -
05.07.2020 15:00:00 - - - - - - -
05.07.2020 14:00:00 - - - - - - -
05.07.2020 13:00:00 - - - - - - -
05.07.2020 12:00:00 - - - - - - -
05.07.2020 11:00:00 - - - - - - -
05.07.2020 10:00:00 - - - - - - -
05.07.2020 09:00:00 - - - - - - -
05.07.2020 08:00:00 - - - - - - -
05.07.2020 07:00:00 - - - - - - -
05.07.2020 06:00:00 - - - - - - -
05.07.2020 05:00:00 - - - - - - -
05.07.2020 04:00:00 - - - - - - -
05.07.2020 03:00:00 - - - - - - -
05.07.2020 02:00:00 - - - - - - -
05.07.2020 01:00:00 - - - - - - -
05.07.2020 00:00:00 - - - - - - -
04.07.2020 23:00:00 - - - - - - -
04.07.2020 22:00:00 - - - - - - -
04.07.2020 21:00:00 - - - - - - -
04.07.2020 20:00:00 24,2 14,6 5 3 N 1015,6 15
04.07.2020 19:00:00 - - - - - - -
04.07.2020 18:00:00 - - - - - - -
04.07.2020 17:00:00 24,2 14,0 15 8 N 1016,1 15
04.07.2020 16:00:00 - - - - - - -
04.07.2020 15:00:00 23,0 15,0 - - - - 10
04.07.2020 14:00:00 22,0 13,9 15 8 N 1017,4 15
04.07.2020 13:00:00 - - - - - - -
04.07.2020 12:00:00 20,0 14,0 - - - - 10
04.07.2020 11:00:00 18,0 13,9 18 10 N 1018,0 15
04.07.2020 10:00:00 - - - - - - -
04.07.2020 09:00:00 - - - - - - -
04.07.2020 08:00:00 15,0 13,2 18 10 N 1017,5 15
04.07.2020 07:00:00 - - - - - - -
04.07.2020 06:00:00 - - - - - - -
04.07.2020 05:00:00 - - - - - - -
04.07.2020 04:00:00 - - - - - - -
04.07.2020 03:00:00 - - - - - - -
04.07.2020 02:00:00 - - - - - - -
04.07.2020 01:00:00 - - - - - - -
04.07.2020 00:00:00 - - - - - - -
03.07.2020 23:00:00 - - - - - - -
03.07.2020 22:00:00 - - - - - - -
03.07.2020 21:00:00 - - - - - - -
03.07.2020 20:00:00 21,2 19,7 9 5 S 1012,2 8
03.07.2020 19:00:00 21,0 20,0 - - - - 7
03.07.2020 18:00:00 - - - - - - -
03.07.2020 17:00:00 24,4 17,9 13 7 S 1010,7 12
03.07.2020 16:00:00 - - - - - - -
03.07.2020 15:00:00 25,0 18,0 - - - - 10
03.07.2020 14:00:00 24,6 18,3 15 8 S 1011,4 12
03.07.2020 13:00:00 - - - - - - -
03.07.2020 12:00:00 - - - - - - -
03.07.2020 11:00:00 22,6 16,6 8 4 N 1011,2 12
03.07.2020 10:00:00 - - - - - - -
03.07.2020 09:00:00 - - - - - - -
03.07.2020 08:00:00 16,8 15,8 15 8 N 1012,0 10
03.07.2020 07:00:00 - - - - - - -
03.07.2020 06:00:00 - - - - - - -
03.07.2020 05:00:00 - - - - - - -
03.07.2020 04:00:00 - - - - - - -
03.07.2020 03:00:00 - - - - - - -
03.07.2020 02:00:00 - - - - - - -
03.07.2020 01:00:00 - - - - - - -
03.07.2020 00:00:00 - - - - - - -
02.07.2020 23:00:00 - - - - - - -
02.07.2020 22:00:00 - - - - - - -
02.07.2020 21:00:00 - - - - - - -
02.07.2020 20:00:00 20,6 18,9 15 8 S 1011,0 10
02.07.2020 19:00:00 - - - - - - -
02.07.2020 18:00:00 - - - - - - -
02.07.2020 17:00:00 23,4 19,1 15 8 S 1010,6 15
02.07.2020 16:00:00 - - - - - - -
02.07.2020 15:00:00 - - - - - - -
02.07.2020 14:00:00 24,2 17,2 11 6 S 1011,5 15
02.07.2020 13:00:00 - - - - - - -
02.07.2020 12:00:00 - - - - - - -
02.07.2020 11:00:00 22,6 16,4 8 4 S 1011,8 15
02.07.2020 10:00:00 - - - - - - -
02.07.2020 09:00:00 18,0 16,0 - - - - 10
02.07.2020 08:00:00 15,6 14,6 8 4 N 1013,0 12
02.07.2020 07:00:00 - - - - - - -
02.07.2020 06:00:00 - - - - - - -
02.07.2020 05:00:00 - - - - - - -
02.07.2020 04:00:00 - - - - - - -
02.07.2020 03:00:00 - - - - - - -
02.07.2020 02:00:00 - - - - - - -
02.07.2020 01:00:00 - - - - - - -

tt = temperature
td = dewpoint
ff = wind speed
dd = wind direction
ppp = reduced air pressure
vv = visibility

Next stations